When you browse on this site, cookies collect data to enhance your experience and personalize the content and advertising you see.
Visit our Privacy Policy to learn more. By continuing to use the site, you agree to this use of cookies and data.
  • In Czech Republic
  • List of Countries
  • For 7 days
  • Water Temperature
  • Weather Map
  • Weather Widgets
  • user-avatar
    Login

    Hourly Weather Koping

    Today, 5 June, Friday

    Time Temperature Precipitation Wind Pressure Humidity
    00:00 +10°C° 0 mm 2 mps 748 mmHg 92%
    01:00 +10°C° 0 mm 2 mps 748 mmHg 95%
    02:00 +10°C° 0 mm 2 mps 747 mmHg 92%
    03:00 +10°C° 0 mm 2 mps 747 mmHg 90%
    04:00 +12°C° 0 mm 2 mps 746 mmHg 87%
    05:00 +12°C° 0 mm 3 mps 746 mmHg 82%
    06:00 +13°C° 0 mm 3 mps 746 mmHg 78%
    07:00 +14°C° 0 mm 3 mps 746 mmHg 73%
    08:00 +16°C° 0 mm 3 mps 745 mmHg 69%
    09:00 +17°C° 0 mm 4 mps 745 mmHg 66%
    10:00 +18°C° 0 mm 4 mps 745 mmHg 62%
    11:00 +19°C° 0.2 mm 4 mps 744 mmHg 58%
    12:00 +20°C° 0.2 mm 4 mps 744 mmHg 54%
    13:00 +20°C° 0.2 mm 5 mps 744 mmHg 50%
    14:00 +20°C° 0 mm 5 mps 744 mmHg 52%
    15:00 +19°C° 0 mm 5 mps 744 mmHg 53%
    16:00 +17°C° 0 mm 5 mps 744 mmHg 55%
    17:00 +15°C° 0.6 mm 4 mps 744 mmHg 66%
    18:00 +13°C° 0.6 mm 4 mps 743 mmHg 77%
    19:00 +12°C° 0.6 mm 3 mps 743 mmHg 89%
    20:00 +11°C° 1 mm 3 mps 743 mmHg 91%
    21:00 +11°C° 1 mm 4 mps 743 mmHg 92%
    22:00 +11°C° 1 mm 4 mps 743 mmHg 94%
    23:00 +11°C° 1.4 mm 4 mps 743 mmHg 95%

    Tomorrow, 6 June, Saturday

    Time Temperature Precipitation Wind Pressure Humidity
    00:00 +11°C° 1.4 mm 4 mps 742 mmHg 96%
    01:00 +11°C° 1.4 mm 4 mps 742 mmHg 96%
    02:00 +11°C° 1.8 mm 3 mps 741 mmHg 97%
    03:00 +11°C° 1.8 mm 3 mps 741 mmHg 97%
    04:00 +12°C° 1.8 mm 2 mps 740 mmHg 98%
    05:00 +13°C° 0.8 mm 2 mps 740 mmHg 97%
    06:00 +13°C° 0.8 mm 2 mps 739 mmHg 96%
    07:00 +13°C° 0.8 mm 1 mps 739 mmHg 96%
    08:00 +15°C° 0.2 mm 2 mps 739 mmHg 86%
    09:00 +16°C° 0.2 mm 2 mps 738 mmHg 76%
    10:00 +17°C° 0.2 mm 3 mps 738 mmHg 66%
    11:00 +16°C° 0.4 mm 3 mps 738 mmHg 72%
    12:00 +14°C° 0.4 mm 3 mps 738 mmHg 78%
    13:00 +13°C° 0.4 mm 4 mps 737 mmHg 84%
    14:00 +12°C° 0.8 mm 4 mps 738 mmHg 87%
    15:00 +12°C° 0.8 mm 4 mps 738 mmHg 90%
    16:00 +10°C° 0.8 mm 5 mps 738 mmHg 93%
    17:00 +10°C° 1.2 mm 5 mps 739 mmHg 92%
    18:00 +10°C° 1.2 mm 6 mps 739 mmHg 91%
    19:00 +10°C° 1.2 mm 6 mps 740 mmHg 89%
    20:00 +10°C° 0 mm 6 mps 741 mmHg 87%
    21:00 +10°C° 0 mm 6 mps 742 mmHg 86%
    22:00 +10°C° 0 mm 6 mps 743 mmHg 84%
    23:00 +9°C° 0 mm 6 mps 744 mmHg 83%

    Day after tomorrow, 7 June, Sunday

    Time Temperature Precipitation Wind Pressure Humidity
    00:00 +9°C° 0 mm 6 mps 745 mmHg 82%
    01:00 +9°C° 0 mm 5 mps 746 mmHg 82%
    02:00 +9°C° 0 mm 5 mps 747 mmHg 82%
    03:00 +9°C° 0 mm 5 mps 747 mmHg 82%
    04:00 +8°C° 0 mm 4 mps 748 mmHg 83%
    05:00 +10°C° 0 mm 5 mps 749 mmHg 76%
    06:00 +12°C° 0 mm 5 mps 749 mmHg 70%
    07:00 +13°C° 0 mm 5 mps 750 mmHg 64%
    08:00 +14°C° 0 mm 5 mps 750 mmHg 60%
    09:00 +15°C° 0 mm 4 mps 751 mmHg 56%
    10:00 +17°C° 0 mm 4 mps 751 mmHg 51%
    11:00 +18°C° 0.1 mm 4 mps 751 mmHg 50%
    12:00 +18°C° 0.1 mm 4 mps 752 mmHg 48%
    13:00 +19°C° 0.1 mm 4 mps 752 mmHg 47%
    14:00 +19°C° 0 mm 4 mps 752 mmHg 46%
    15:00 +19°C° 0 mm 3 mps 752 mmHg 46%
    16:00 +19°C° 0 mm 3 mps 752 mmHg 45%
    17:00 +19°C° 0 mm 3 mps 752 mmHg 50%
    18:00 +18°C° 0 mm 2 mps 752 mmHg 56%
    19:00 +17°C° 0 mm 2 mps 752 mmHg 61%
    20:00 +16°C° 0.1 mm 2 mps 753 mmHg 67%
    21:00 +14°C° 0.1 mm 2 mps 753 mmHg 74%
    22:00 +13°C° 0.1 mm 2 mps 754 mmHg 80%
    23:00 +12°C° 0.1 mm 2 mps 754 mmHg 84%

    8 June, Monday

    Time Temperature Precipitation Wind Pressure Humidity
    00:00 +12°C° 0.1 mm 1 mps 754 mmHg 88%
    01:00 +11°C° 0.1 mm 1 mps 755 mmHg 91%
    02:00 +11°C° 0 mm 1 mps 755 mmHg 92%
    03:00 +10°C° 0 mm 1 mps 755 mmHg 93%
    04:00 +10°C° 0 mm 1 mps 755 mmHg 94%
    05:00 +12°C° 0 mm 1 mps 755 mmHg 87%
    06:00 +14°C° 0 mm 1 mps 756 mmHg 80%
    07:00 +15°C° 0 mm 1 mps 756 mmHg 73%
    08:00 +17°C° 0.1 mm 2 mps 756 mmHg 66%
    09:00 +18°C° 0.1 mm 2 mps 756 mmHg 59%
    10:00 +19°C° 0.1 mm 3 mps 757 mmHg 53%
    11:00 +19°C° 0 mm 3 mps 757 mmHg 52%
    12:00 +20°C° 0 mm 3 mps 757 mmHg 51%
    13:00 +20°C° 0 mm 3 mps 757 mmHg 51%
    14:00 +20°C° 0 mm 3 mps 757 mmHg 50%
    15:00 +21°C° 0 mm 3 mps 757 mmHg 50%
    16:00 +21°C° 0 mm 2 mps 757 mmHg 49%
    17:00 +20°C° 0 mm 2 mps 757 mmHg 55%
    18:00 +20°C° 0 mm 2 mps 758 mmHg 60%
    19:00 +19°C° 0 mm 2 mps 758 mmHg 65%
    20:00 +17°C° 0 mm 2 mps 758 mmHg 72%
    21:00 +15°C° 0 mm 2 mps 759 mmHg 79%
    22:00 +13°C° 0 mm 2 mps 759 mmHg 86%
    23:00 +13°C° 0 mm 1 mps 760 mmHg 88%

    9 June, Tuesday

    Time Temperature Precipitation Wind Pressure Humidity
    00:00 +12°C° 0 mm 1 mps 760 mmHg 89%
    01:00 +11°C° 0 mm 1 mps 760 mmHg 91%
    02:00 +11°C° 0 mm 1 mps 760 mmHg 91%
    03:00 +10°C° 0 mm 0 mps 760 mmHg 91%
    04:00 +10°C° 0 mm 0 mps 760 mmHg 91%
    05:00 +12°C° 0 mm 0 mps 761 mmHg 82%
    06:00 +15°C° 0 mm 0 mps 761 mmHg 74%
    07:00 +17°C° 0 mm 0 mps 761 mmHg 65%
    08:00 +21°C° 0 mm 1 mps 761 mmHg 59%
    09:00 +22°C° 0 mm 1 mps 762 mmHg 53%
    10:00 +24°C° 0 mm 1 mps 762 mmHg 46%
    11:00 +24°C° 0 mm 1 mps 762 mmHg 45%
    12:00 +25°C° 0 mm 1 mps 762 mmHg 43%
    13:00 +25°C° 0 mm 1 mps 761 mmHg 42%
    14:00 +25°C° 0 mm 1 mps 761 mmHg 42%
    15:00 +25°C° 0 mm 1 mps 761 mmHg 43%
    16:00 +25°C° 0 mm 1 mps 761 mmHg 44%
    17:00 +24°C° 0 mm 1 mps 761 mmHg 49%
    18:00 +23°C° 0 mm 1 mps 762 mmHg 54%
    19:00 +22°C° 0 mm 1 mps 762 mmHg 59%
    20:00 +20°C° 0 mm 1 mps 762 mmHg 66%
    21:00 +18°C° 0 mm 1 mps 762 mmHg 72%
    22:00 +15°C° 0 mm 1 mps 763 mmHg 78%
    23:00 +14°C° 0 mm 1 mps 763 mmHg 80%

    10 June, Wednesday

    Time Temperature Precipitation Wind Pressure Humidity
    00:00 +13°C° 0 mm 1 mps 763 mmHg 81%
    01:00 +13°C° 0 mm 1 mps 763 mmHg 83%
    02:00 +12°C° 0 mm 1 mps 763 mmHg 82%
    03:00 +12°C° 0 mm 1 mps 763 mmHg 81%
    04:00 +12°C° 0 mm 1 mps 763 mmHg 80%
    05:00 +14°C° 0 mm 1 mps 763 mmHg 73%
    06:00 +16°C° 0 mm 2 mps 763 mmHg 66%
    07:00 +18°C° 0 mm 2 mps 763 mmHg 59%
    08:00 +19°C° 0 mm 2 mps 763 mmHg 54%
    09:00 +21°C° 0 mm 2 mps 763 mmHg 49%
    10:00 +23°C° 0 mm 2 mps 763 mmHg 43%
    11:00 +24°C° 0 mm 2 mps 763 mmHg 42%
    12:00 +25°C° 0 mm 2 mps 763 mmHg 41%
    13:00 +26°C° 0 mm 2 mps 763 mmHg 39%
    14:00 +26°C° 0 mm 2 mps 763 mmHg 40%
    15:00 +26°C° 0 mm 2 mps 763 mmHg 41%
    16:00 +26°C° 0 mm 3 mps 763 mmHg 41%
    17:00 +25°C° 0 mm 2 mps 763 mmHg 46%
    18:00 +23°C° 0 mm 2 mps 763 mmHg 52%
    19:00 +21°C° 0 mm 2 mps 763 mmHg 57%
    20:00 +19°C° 0 mm 2 mps 763 mmHg 63%
    21:00 +17°C° 0 mm 2 mps 764 mmHg 69%
    22:00 +16°C° 0 mm 2 mps 764 mmHg 75%
    23:00 +15°C° 0 mm 2 mps 764 mmHg 77%
    Show more